Theta_e
332 332 332 330 330 326 321 320 321 320 320 319 318 316 315 314 313 312 311 309 307 306 305 305 306 307 307 308 309 310 311 311 312 313 313 313 312 310 314 317 321 323 323 324 325 327 327 326 325 326 325 323 321 321 321 320 319 318 318 318 317 316 315 314 314 314 313 313 313 313 313 313 313 313 314 314 314 313 313 313 314 313 315 313 313
333 332 331 330 330 326 321 321 321 320 320 318 317 315 314 313 312 311 309 308 306 305 304 303 303 304 305 306 308 308 308 309 310 310 312 312 312 310 310 313 317 319 320 322 322 322 322 323 324 324 323 323 322 320 319 318 318 317 317 316 315 315 314 313 313 313 312 312 312 312 312 312 312 312 312 312 312 312 312 312 313 313 312 313 313
334 332 331 330 330 326 322 321 321 320 320 318 317 315 314 312 311 309 308 306 304 304 303 302 302 302 302 303 304 306 306 306 307 308 309 310 311 311 308 308 312 316 317 319 320 321 321 321 321 321 321 320 319 320 319 319 317 316 317 317 315 314 314 313 312 312 312 311 312 311 311 311 311 311 311 311 311 311 311 311 311 311 313 312 312
335 334 332 330 329 326 324 323 322 320 319 318 315 314 313 312 311 309 308 305 303 303 302 301 300 300 300 300 302 303 304 304 304 304 305 306 307 309 308 307 307 309 313 316 318 318 318 318 318 318 318 319 320 319 318 318 316 315 315 315 313 313 313 312 311 311 312 311 310 311 310 310 310 309 310 309 309 310 310 310 311 310 310 310 311
335 334 333 331 330 328 326 325 322 320 319 316 315 313 311 310 308 307 306 304 302 302 303 300 298 298 299 299 299 299 300 301 301 300 300 301 302 303 305 306 305 305 306 310 314 316 316 317 317 316 316 316 316 317 316 316 315 314 314 314 313 312 311 311 311 310 311 311 311 311 309 309 309 309 309 309 309 309 309 309 310 310 309 309 310
336 334 332 331 328 327 325 323 322 320 318 316 314 312 310 308 306 306 304 303 301 301 299 299 298 298 298 298 298 298 299 298 298 298 299 299 299 300 299 301 301 302 303 304 307 311 314 315 315 315 315 315 314 315 315 315 314 314 313 313 312 311 310 310 310 311 310 310 310 308 308 308 308 308 308 308 308 309 309 310 310 310 309 308 309
337 334 332 331 327 326 326 326 325 319 317 315 314 311 309 306 305 304 303 302 301 300 299 298 297 297 297 297 297 298 298 297 298 298 298 298 298 299 298 298 298 298 299 300 301 305 309 312 313 312 313 314 314 313 313 314 313 312 311 312 311 310 310 310 310 310 309 308 307 307 307 307 308 308 308 308 308 309 309 309 309 309 309 309 309
336 336 334 332 328 325 325 325 322 318 316 314 312 309 307 306 305 303 301 300 299 299 299 297 297 296 297 297 297 297 296 297 297 297 297 298 298 298 297 297 297 296 297 295 296 299 304 306 309 311 311 311 313 313 313 312 312 312 311 311 311 310 309 309 309 309 309 308 307 307 307 306 307 307 307 307 307 308 308 308 308 309 308 308 309
336 334 333 331 330 327 324 323 321 317 315 312 311 309 306 306 303 302 302 299 299 299 298 298 297 297 297 297 297 296 296 296 296 297 298 297 296 296 296 297 297 299 297 295 294 294 298 302 305 307 308 309 310 311 312 311 311 311 310 308 309 309 308 308 308 308 307 306 306 306 306 306 306 307 307 306 307 307 307 308 307 308 308 307 309
334 333 332 331 329 328 325 323 320 317 315 312 310 308 306 304 300 301 301 299 298 297 297 297 297 297 296 296 296 296 296 296 296 296 296 296 296 296 296 296 296 296 296 296 296 295 295 296 298 300 303 305 308 309 310 310 310 310 309 308 308 307 308 307 307 306 306 306 306 306 306 306 306 306 306 306 306 306 306 307 307 307 307 308 308
333 331 329 327 326 325 325 322 319 316 313 311 309 308 306 303 301 299 300 300 298 298 296 297 296 296 295 294 294 294 295 295 296 296 295 295 295 296 297 295 295 296 295 295 294 295 295 294 293 293 297 301 304 306 307 307 308 309 309 309 308 307 307 307 306 306 306 305 305 305 305 305 305 306 306 306 305 306 306 306 307 306 306 307 307
333 332 329 325 322 321 322 321 319 315 312 309 307 307 304 302 300 298 298 298 298 297 297 295 294 293 293 293 294 294 294 294 294 294 295 295 294 294 294 294 294 294 294 295 294 294 294 294 294 293 293 296 298 300 301 303 305 307 308 308 308 307 306 306 305 305 305 305 305 305 305 305 305 305 305 305 306 305 306 306 306 306 305 306 306
328 330 328 322 321 320 320 318 317 314 312 310 308 307 304 301 299 299 298 296 296 296 296 295 292 291 292 292 291 292 292 292 292 293 293 293 294 293 293 293 294 293 294 294 294 294 293 294 293 293 294 296 295 296 297 298 300 304 305 307 308 307 305 305 305 305 305 305 305 305 305 304 304 305 305 306 305 305 305 305 306 305 305 306 306
325 325 324 323 321 319 319 317 316 314 313 311 309 305 303 300 299 297 298 296 294 295 295 294 291 289 287 288 289 290 291 290 290 291 292 293 294 294 294 293 293 293 293 292 293 292 292 292 293 293 293 294 294 293 294 294 295 299 301 303 305 306 306 305 305 304 304 304 304 304 304 304 304 305 305 305 305 305 305 305 305 305 305 305 305
324 323 322 321 320 319 317 317 316 314 311 310 309 305 301 299 298 297 295 296 295 296 294 295 292 291 291 288 286 286 288 288 289 289 290 291 292 293 293 293 293 293 293 292 291 291 291 291 292 292 293 294 294 294 293 294 294 296 298 300 302 304 306 305 304 303 303 304 304 303 303 303 304 304 304 304 304 304 304 304 305 305 305 306 305
323 322 322 321 320 319 318 317 315 314 312 309 306 303 300 298 298 297 296 293 293 293 295 296 295 291 287 289 288 289 285 285 286 287 290 290 291 291 292 292 292 293 293 291 290 290 290 291 291 292 292 292 294 293 294 294 295 296 295 296 297 301 302 304 304 304 303 303 304 303 302 302 302 303 303 303 304 304 304 304 304 304 305 305 305
321 321 321 320 319 319 317 316 315 313 311 308 305 302 300 300 299 297 296 294 292 293 295 297 299 296 295 292 289 289 291 290 286 286 288 288 290 290 291 291 291 291 291 291 291 290 290 290 290 291 291 292 293 293 292 294 293 293 294 295 296 298 300 301 303 302 302 302 303 302 302 302 302 302 302 302 303 303 303 303 303 303 304 304 304
318 318 320 320 319 318 317 315 314 312 311 309 306 304 300 299 299 298 297 297 295 293 293 298 301 298 303 303 301 294 293 288 288 284 286 289 289 290 290 291 292 291 291 290 290 289 289 289 290 290 291 292 293 293 291 291 291 291 292 294 296 296 298 299 300 301 301 301 301 302 302 302 301 301 301 301 302 302 303 303 303 303 303 303 303
315 316 317 317 319 318 317 316 314 312 309 308 305 302 300 300 300 299 298 298 298 295 295 297 298 300 302 301 300 298 296 289 288 287 283 287 288 288 288 290 290 290 290 290 290 289 289 289 289 289 290 292 293 292 291 290 290 290 292 294 295 295 295 297 298 298 299 300 300 300 301 301 301 300 301 301 301 302 302 302 303 302 302 302 303
311 313 315 315 316 316 316 314 313 312 309 308 306 304 302 301 301 300 299 299 298 297 297 298 295 296 299 298 295 298 297 301 299 291 289 284 284 287 289 288 289 289 290 289 289 289 288 289 289 289 289 290 291 292 293 291 290 289 288 293 294 294 294 295 296 296 296 298 299 299 300 300 300 300 300 300 300 301 301 302 302 302 302 302 302
308 309 310 312 312 315 315 314 313 312 309 309 306 304 302 301 300 299 298 299 299 300 300 298 297 298 297 297 297 297 297 300 300 297 292 288 285 284 285 287 288 288 288 289 289 290 289 289 289 290 290 290 292 292 292 292 289 288 287 291 292 294 294 295 296 295 295 295 295 297 298 298 299 299 300 300 300 300 301 301 301 302 301 301 302
304 305 306 307 308 309 312 313 313 312 309 310 306 304 303 301 300 300 300 300 300 301 302 300 299 300 298 298 296 295 294 293 294 295 296 295 288 285 285 283 282 285 288 288 288 289 289 289 288 289 290 290 291 290 292 292 288 287 286 288 289 291 292 293 294 295 295 295 294 294 295 296 297 298 299 300 300 301 301 301 301 300 301 301 301
302 302 302 302 303 304 308 311 311 312 310 311 309 306 304 302 301 301 302 302 302 303 303 302 300 301 299 298 297 295 293 291 290 291 291 291 290 287 286 285 285 285 286 288 288 288 289 289 288 288 289 290 290 290 291 289 286 285 285 285 287 289 290 291 292 294 294 294 294 294 294 295 295 296 297 299 299 300 301 301 300 301 300 300 300
300 300 299 299 300 300 302 305 307 308 309 310 309 307 305 304 302 301 303 303 303 303 303 302 301 301 300 299 298 298 297 295 294 293 291 291 291 288 286 286 287 287 288 287 289 288 288 288 288 288 288 289 288 290 289 289 287 284 286 285 285 287 288 290 292 293 293 293 293 293 293 294 294 294 295 297 298 299 300 300 300 300 300 299 299
300 300 299 298 298 298 298 300 303 305 306 307 307 306 305 304 303 302 302 302 303 304 303 302 302 299 299 298 299 297 297 299 299 294 295 296 292 288 288 287 285 286 286 286 285 287 288 287 287 288 287 287 288 287 287 288 288 284 283 285 286 285 286 287 289 291 292 292 293 292 292 292 293 293 294 295 296 297 298 299 300 299 299 298 299
301 299 298 298 297 299 300 300 302 303 303 305 304 303 303 303 302 301 301 302 303 303 303 302 301 301 299 296 296 296 294 296 296 297 294 292 290 288 286 287 288 286 286 285 286 284 286 287 288 287 287 287 287 287 287 287 288 285 283 282 284 286 285 286 287 289 290 291 292 291 292 292 291 292 293 295 295 296 296 296 298 298 298 298 298
303 302 300 298 298 297 299 299 299 301 300 302 302 302 302 302 301 300 301 301 301 301 300 299 299 297 296 295 294 293 292 292 294 294 295 294 292 289 286 283 283 285 284 285 284 285 285 286 287 286 286 286 286 286 286 286 287 285 283 283 285 285 285 286 287 288 290 290 291 291 291 291 291 292 292 294 294 294 294 295 295 295 296 296 296
303 302 302 300 297 296 296 297 298 299 298 299 300 301 300 299 297 297 298 298 298 299 298 298 297 296 295 294 292 291 291 291 292 291 291 291 291 290 289 286 283 281 283 281 283 284 287 285 286 286 286 286 287 286 287 286 286 286 283 283 285 285 285 286 287 288 289 290 290 290 291 291 291 291 291 291 292 292 293 294 293 293 293 293 293
303 301 300 297 297 296 296 295 295 296 296 297 297 297 297 297 298 297 298 295 297 297 296 296 295 294 293 293 291 290 289 289 288 289 289 288 290 289 290 288 288 285 282 281 283 283 285 286 284 285 286 286 286 287 285 283 285 285 284 285 284 284 285 286 287 288 289 289 289 290 290 290 290 290 290 291 291 292 292 292 291 291 291 291 291
301 300 299 295 295 294 295 293 293 293 294 294 294 294 294 295 296 296 296 295 296 295 294 294 293 292 292 291 289 288 288 288 288 287 288 288 288 288 286 286 287 285 285 282 282 284 284 286 285 284 285 285 286 286 285 284 286 283 283 283 283 283 285 286 287 287 288 289 289 289 289 289 289 290 290 290 291 291 292 291 291 291 290 291 292
299 295 293 293 293 291 292 292 291 291 292 292 294 294 294 294 294 294 293 294 294 293 293 292 292 291 290 289 289 287 288 288 287 287 287 287 287 287 285 286 285 284 284 284 280 283 284 284 284 286 284 285 285 285 285 285 285 283 282 282 283 284 285 284 285 286 287 288 288 288 288 289 289 289 289 290 290 291 291 291 290 290 289 290 290
297 295 293 292 291 290 290 290 290 291 291 291 292 293 293 294 294 294 293 293 292 291 290 290 290 290 289 287 287 287 287 287 286 286 286 286 286 286 285 285 285 284 284 285 281 282 286 284 284 285 285 284 285 283 284 284 285 284 282 282 282 284 283 282 284 286 286 287 288 288 288 288 288 289 289 289 290 290 290 290 289 289 289 289 290
296 294 292 291 290 290 289 289 289 290 290 290 291 291 292 292 293 292 291 292 291 289 288 288 289 288 287 286 286 286 286 285 285 285 285 285 285 285 285 285 284 284 285 282 280 280 283 283 285 284 285 284 283 284 283 283 283 283 283 282 282 282 282 282 282 284 285 286 287 287 287 288 288 288 289 289 289 289 289 289 288 288 288 288 289
294 292 291 291 290 289 289 289 289 289 289 289 290 290 291 291 291 291 290 290 289 287 287 286 286 287 286 285 284 284 285 284 284 283 283 283 283 283 282 283 283 284 284 284 280 280 279 281 282 284 283 284 281 284 282 282 282 283 282 282 283 282 282 281 281 282 284 285 286 286 287 287 288 288 288 288 289 288 289 289 288 288 288 288 287
292 292 292 290 289 289 288 288 288 288 288 288 289 289 290 289 289 289 290 289 288 286 286 285 286 286 285 284 283 284 285 283 282 282 282 282 282 282 281 281 280 282 283 284 281 279 279 280 281 280 281 282 281 281 283 283 283 282 281 281 281 282 282 282 281 281 284 285 286 287 287 287 288 288 288 288 288 288 288 288 287 287 287 287 287
290 291 291 290 289 288 287 287 287 287 287 287 288 288 289 289 289 288 288 288 288 287 286 285 284 284 284 283 283 283 283 282 281 281 281 281 281 281 281 281 280 281 281 281 281 280 280 279 280 279 281 280 280 282 283 282 281 280 281 281 282 281 281 282 281 281 282 285 286 286 287 287 287 287 288 288 288 288 288 287 287 286 286 286 286
290 290 289 289 288 287 286 286 286 286 287 287 287 287 288 288 288 288 288 287 287 286 285 284 285 284 284 283 282 282 282 281 281 280 280 280 280 280 280 281 280 281 282 281 281 280 279 279 279 281 281 280 281 281 281 280 280 280 280 280 280 281 281 281 282 282 284 285 285 286 286 287 287 287 287 287 288 287 287 287 286 286 286 285 285
290 290 288 288 288 286 286 286 286 286 286 286 286 287 287 287 287 287 287 287 286 285 284 284 284 284 283 283 282 282 282 281 281 280 280 280 280 280 280 281 281 281 281 280 280 279 279 279 279 279 281 280 279 280 280 280 279 279 279 280 280 281 280 280 280 281 281 281 281 281 283 284 285 286 286 287 287 287 286 286 286 286 285 284 284
289 288 287 287 287 287 286 286 286 285 285 285 286 286 286 286 286 286 286 285 285 284 284 284 283 283 284 283 282 282 282 282 281 280 280 280 281 280 281 281 281 281 281 280 280 280 279 279 279 280 280 280 280 278 280 280 279 279 278 278 278 280 280 280 279 280 281 281 283 284 283 282 283 282 284 285 286 286 286 285 285 285 284 283 283
288 287 287 286 287 286 286 286 286 285 285 285 285 285 285 286 285 285 285 284 283 283 283 283 283 283 283 283 282 282 282 282 281 281 282 281 281 280 281 281 281 281 280 281 280 280 280 279 279 279 280 280 279 280 280 279 278 278 279 278 277 278 279 281 281 279 280 281 280 280 283 284 284 284 285 285 285 285 285 285 284 283 282 282 282
288 287 287 286 286 285 285 285 285 285 285 285 285 284 284 284 285 284 284 284 283 282 282 281 282 282 281 281 281 281 282 283 284 283 283 283 281 281 282 281 281 281 281 281 281 280 280 280 279 280 280 279 279 279 279 278 278 278 280 279 278 279 279 279 280 281 281 280 280 280 280 280 279 279 279 279 279 281 281 282 282 282 282 282 282
286 286 285 285 285 285 285 284 284 285 284 285 285 286 287 284 284 285 284 283 282 282 281 280 280 280 280 280 281 282 283 282 283 284 284 284 284 283 283 282 282 281 281 280 281 281 280 280 280 280 279 279 280 280 280 280 281 281 280 279 278 279 279 279 279 280 281 280 279 278 279 280 279 278 278 277 279 280 278 278 277 278 279 281 281
285 285 284 284 283 283 283 283 283 284 284 284 286 288 288 288 285 284 283 283 283 282 281 281 279 279 279 279 280 282 282 282 281 283 283 283 283 283 284 284 284 283 281 280 280 280 280 280 280 280 280 279 280 281 281 281 281 280 279 279 279 279 278 277 276 279 282 280 278 277 278 279 278 277 277 278 278 278 278 278 280 281 281 281 281
285 285 284 283 283 283 284 283 283 283 283 285 288 288 289 289 287 284 284 283 283 282 281 281 280 279 279 278 279 280 279 279 280 281 282 283 284 284 284 284 284 285 285 282 281 280 280 279 279 279 280 279 280 281 281 281 280 280 280 279 279 278 277 277 277 276 279 280 276 276 276 278 278 278 277 277 278 278 278 280 281 281 281 281 281
284 284 283 283 283 283 283 283 282 282 282 285 288 289 289 289 288 286 284 284 283 282 281 281 280 279 279 278 278 279 280 282 281 281 281 281 283 283 284 284 284 285 285 285 285 282 281 279 279 279 279 279 279 280 281 280 281 279 279 279 279 279 278 277 277 278 279 279 276 275 275 277 278 277 276 277 278 278 277 280 281 281 281 281 281
284 283 284 283 283 282 282 282 282 282 282 285 287 288 289 289 289 287 284 283 283 282 281 281 280 279 279 279 278 278 279 280 281 281 281 281 281 281 282 282 282 283 284 285 285 285 284 281 279 278 280 280 279 280 281 281 279 279 279 278 279 278 278 278 279 279 280 281 277 275 274 276 277 276 275 276 278 277 277 279 281 281 281 281 281
283 283 283 283 283 283 283 283 283 282 281 286 287 288 289 288 288 286 284 284 283 282 281 280 280 279 279 279 279 279 279 279 280 280 280 280 280 280 281 281 282 282 283 283 283 283 282 282 281 280 280 280 280 280 280 281 281 281 280 278 278 278 279 280 279 280 279 280 279 277 272 275 277 275 275 276 277 277 276 278 280 280 280 280 280
284 284 284 283 283 283 283 283 282 282 283 286 287 287 288 288 287 284 283 283 282 281 280 279 279 279 279 280 280 281 281 281 282 283 282 281 280 280 279 280 280 281 281 283 284 285 284 283 282 282 282 282 283 282 283 283 282 282 282 281 280 279 277 276 275 276 276 279 279 277 274 273 276 274 274 276 276 275 275 275 278 279 280 280 280
283 283 283 283 283 283 283 283 282 282 283 286 287 287 287 287 285 283 283 282 282 280 279 279 279 279 279 280 281 281 281 280 282 284 284 283 281 280 279 279 279 279 279 281 283 284 284 285 285 286 286 286 287 287 287 287 285 284 282 280 278 278 275 273 274 275 274 277 278 278 276 272 274 274 273 274 274 273 273 274 274 278 278 278 278
282 282 283 283 283 283 283 283 283 282 282 285 287 288 287 286 285 283 282 282 281 281 280 279 279 279 280 281 281 280 280 280 283 284 285 284 281 280 280 279 278 278 279 279 280 280 283 283 284 284 284 284 284 284 284 284 284 283 279 276 278 278 276 275 273 274 275 276 277 279 273 272 273 273 272 272 273 273 273 273 274 274 276 276 277
283 283 283 283 283 283 283 283 283 282 283 285 287 288 287 287 284 283 283 282 280 280 280 280 280 280 280 281 282 281 281 281 283 284 285 284 281 280 280 279 278 278 279 280 279 279 279 278 279 279 280 281 281 280 280 282 283 282 280 279 279 277 275 275 275 274 272 274 277 278 272 272 272 273 273 270 269 272 273 273 272 271 271 271 272
Wind_Speed
9 7 6 6 6 6 7 7 7 7 7 7 6 6 5 6 6 6 6 6 6 6 5 5 5 5 5 5 5 5 6 6 6 7 7 8 8 12 17 19 17 17 17 17 17 19 20 19 18 21 20 19 19 19 20 20 21 21 20 20 20 19 19 19 19 20 20 20 21 21 21 21 22 22 22 22 23 23 24 24 24 24 25 24 24
9 8 7 6 6 6 6 6 6 6 7 7 7 6 6 6 6 6 6 6 6 5 5 5 5 5 5 5 5 5 4 5 5 6 7 7 8 9 19 19 19 19 18 18 17 16 15 16 17 19 19 19 19 18 18 18 18 20 20 19 19 18 18 18 19 19 20 20 20 20 21 21 22 22 22 23 23 23 23 24 24 24 24 24 25
9 9 9 7 6 8 7 7 6 6 6 7 8 7 7 6 6 6 6 6 6 5 5 5 5 5 5 5 4 4 4 5 5 6 7 7 7 8 12 19 19 20 18 18 17 17 17 16 16 16 16 15 15 16 17 18 19 18 18 18 18 18 18 18 18 19 19 19 19 19 20 21 20 20 21 21 21 21 22 23 23 23 24 24 25
10 10 9 9 9 8 6 6 6 6 6 7 7 6 6 7 6 6 7 6 7 5 5 5 6 5 5 5 4 4 4 5 5 6 6 6 7 7 7 10 18 20 19 17 17 17 17 17 16 16 14 15 16 16 16 17 17 16 17 17 17 17 17 18 17 18 17 18 19 18 19 19 19 19 20 20 20 21 21 22 22 23 24 24 25
10 11 7 9 10 7 5 4 4 5 5 7 9 7 7 7 7 6 7 6 7 6 5 6 6 5 5 5 4 4 4 4 5 5 5 5 5 5 5 7 8 14 17 18 18 19 19 18 17 15 14 13 14 15 15 15 16 16 16 16 16 16 16 16 17 17 17 17 17 17 18 18 18 19 20 20 20 21 21 22 23 22 23 24 24
9 9 8 6 9 8 7 6 5 7 6 7 7 7 7 7 8 7 7 7 7 7 6 6 6 5 5 4 4 4 4 5 4 4 4 5 4 4 4 4 5 6 7 15 19 18 19 18 17 16 14 13 12 12 13 13 14 15 15 15 15 14 15 15 15 16 16 16 16 16 17 17 18 18 19 19 20 20 21 21 21 21 22 23 23
9 9 9 9 9 8 8 7 6 7 7 7 7 7 7 7 7 8 7 6 7 7 7 6 6 6 5 4 4 4 4 5 5 5 5 4 4 4 4 4 4 4 5 6 11 16 17 18 17 16 16 14 13 12 12 12 12 12 14 14 14 14 14 14 14 15 15 15 15 16 16 17 17 18 18 19 19 20 20 20 21 21 21 23 23
10 8 9 8 8 7 8 6 8 7 8 6 7 8 8 6 6 7 8 7 7 7 6 6 6 7 5 4 4 4 4 4 4 5 4 4 4 4 4 5 4 5 5 6 6 9 16 16 17 17 16 16 15 14 12 12 11 11 11 12 13 13 14 13 14 14 14 15 15 16 16 17 17 18 18 18 19 19 19 20 20 21 21 22 22
7 8 8 9 8 9 8 9 8 8 9 7 7 6 7 6 6 4 4 8 7 8 7 6 6 6 5 5 4 4 4 4 4 4 4 4 4 4 5 5 4 5 4 4 5 5 10 15 16 17 16 16 16 16 15 11 11 10 10 10 11 12 13 13 13 13 14 14 15 16 16 16 17 17 18 18 18 19 19 19 20 20 21 22 22
9 8 8 7 8 9 9 10 10 8 8 8 7 6 7 7 7 5 5 7 8 9 8 7 6 5 6 5 4 4 4 4 4 4 4 4 4 4 4 4 4 4 4 3 3 3 4 8 13 15 16 15 16 16 16 14 12 10 9 9 10 11 12 13 13 13 14 15 15 16 16 16 16 17 17 18 18 18 18 19 19 20 20 21 21
9 9 6 6 6 7 10 11 10 9 9 9 7 7 7 7 8 7 5 4 7 8 8 7 7 6 5 5 4 5 3 3 3 3 3 4 4 3 3 4 4 3 3 3 4 3 4 3 4 5 8 16 15 17 16 15 14 12 10 10 10 10 11 12 12 13 13 14 15 15 15 15 16 16 16 16 17 17 17 18 19 19 19 20 20
9 8 8 7 6 6 8 9 9 9 10 10 9 8 10 9 8 9 9 6 4 7 8 8 8 7 7 5 5 4 4 3 4 3 3 3 3 3 3 3 3 3 4 3 4 4 3 3 3 3 5 9 14 14 15 16 15 14 13 11 9 10 11 11 12 12 13 13 14 14 14 15 15 15 15 16 16 16 17 17 18 19 20 20 21
8 7 10 8 7 7 7 8 8 9 9 11 11 10 8 8 8 5 9 9 6 6 7 8 9 7 6 5 5 4 4 3 3 3 2 2 2 3 2 3 3 3 3 4 4 3 3 3 3 3 3 2 5 9 11 14 15 14 15 13 13 11 11 11 11 12 12 13 13 13 14 14 14 15 15 15 16 16 16 17 17 19 20 20 20
7 7 7 8 9 8 10 9 9 8 8 6 7 8 10 9 9 8 2 8 8 9 8 9 6 7 8 6 4 3 3 2 2 2 1 2 2 2 2 3 3 3 4 4 4 4 3 3 2 3 3 3 3 3 4 6 9 14 14 14 14 12 10 10 11 11 12 13 13 13 13 14 14 14 14 15 15 16 16 17 18 19 19 20 20
8 8 8 7 9 9 10 9 10 10 9 8 8 11 11 13 12 10 8 3 6 7 10 8 7 7 6 7 5 4 2 2 2 3 2 2 2 3 3 3 3 3 3 3 3 3 3 3 3 3 2 2 2 2 4 5 5 12 14 14 14 13 12 10 10 11 11 13 13 13 13 13 14 14 14 15 15 16 17 17 17 18 19 20 21
9 9 7 8 8 10 10 11 9 12 11 10 11 11 11 10 10 9 12 10 6 8 9 9 7 11 8 6 7 5 3 7 7 4 3 3 3 4 3 3 4 3 2 3 3 3 3 3 3 2 2 2 2 2 2 2 4 8 13 13 13 13 12 11 10 10 11 13 13 13 13 13 14 14 14 15 16 16 16 17 17 19 19 20 22
8 9 9 11 11 9 10 11 12 13 11 10 9 11 9 12 13 12 12 12 10 8 8 8 6 9 4 6 5 5 6 6 9 4 5 4 3 3 3 4 4 4 3 3 3 3 3 3 3 2 2 2 2 2 2 2 3 4 7 9 11 11 11 11 11 12 12 13 13 14 13 13 13 14 14 15 16 16 17 17 17 19 20 21 22
7 8 9 9 11 12 10 11 10 9 10 11 11 11 11 12 13 11 10 8 13 11 10 8 5 11 3 2 2 2 5 8 8 3 5 3 4 3 4 4 3 3 3 4 4 4 3 3 3 2 2 1 1 1 2 3 3 4 4 6 10 10 10 11 11 12 12 13 13 13 13 13 13 14 15 15 16 16 17 18 18 19 20 21 22
6 7 7 8 12 13 12 9 11 10 7 7 10 12 12 12 11 10 11 11 10 11 12 10 5 5 2 1 2 3 4 10 5 6 4 4 4 4 4 3 4 3 4 5 5 4 3 3 3 2 2 1 1 1 2 3 4 5 8 8 9 9 9 9 9 10 11 12 12 13 13 13 14 15 15 15 15 16 17 17 18 19 19 20 21
4 5 6 7 8 9 10 10 9 10 10 10 10 10 10 10 13 12 11 10 11 10 11 9 10 7 5 3 2 0 5 1 3 5 4 6 5 4 3 4 3 4 4 4 5 4 4 3 3 2 2 1 0 1 2 2 2 3 4 7 7 8 8 7 7 8 9 11 12 12 12 13 14 15 16 15 15 16 16 17 18 18 19 20 21
2 4 4 5 4 7 10 10 10 10 10 10 11 12 13 13 12 10 11 9 8 8 9 9 9 7 7 5 3 3 4 1 1 3 2 3 4 6 5 4 2 3 4 4 3 3 3 3 3 2 1 1 1 0 1 2 2 2 3 6 6 7 7 7 7 8 8 9 10 11 12 13 14 15 15 16 15 16 16 17 17 18 19 20 21
3 2 4 4 6 4 7 9 10 12 12 12 12 14 13 14 15 14 13 12 9 10 10 8 9 7 7 5 5 4 3 2 2 2 1 2 3 7 7 7 6 4 4 4 4 4 3 3 3 2 1 2 1 1 0 1 2 2 2 4 5 6 6 6 7 7 8 8 9 10 11 12 13 15 15 16 16 16 16 17 17 18 19 20 21
4 4 3 4 4 4 6 8 5 9 11 11 11 11 11 12 12 13 13 14 11 11 8 8 8 7 8 7 7 6 5 4 6 4 3 2 3 4 5 6 5 5 5 4 5 4 4 3 3 3 2 1 1 1 1 2 3 2 1 1 3 4 4 6 6 7 8 8 9 10 11 12 12 14 15 16 16 16 16 17 17 18 19 19 21
4 5 5 4 4 3 3 5 6 7 8 7 9 11 10 10 11 11 11 12 10 9 8 8 10 6 8 6 6 5 4 3 3 4 4 3 3 5 5 5 3 3 4 4 3 4 4 4 3 3 3 2 2 1 1 2 3 2 2 1 2 3 4 5 7 7 8 9 9 10 11 11 12 13 14 15 16 16 16 17 17 18 19 19 20
7 8 6 6 5 5 5 6 7 6 6 7 7 8 9 10 11 12 11 10 9 8 8 8 10 6 7 5 4 4 3 1 1 3 3 2 3 4 4 5 3 4 3 4 3 3 4 4 4 3 3 3 2 2 2 2 3 4 1 3 4 3 4 5 7 8 9 9 10 10 11 11 12 13 14 15 15 15 16 17 17 18 18 19 20
7 8 6 7 6 8 9 9 7 9 9 9 8 8 8 9 10 10 11 9 7 9 8 6 7 5 5 4 2 3 3 2 2 2 2 2 3 5 5 3 1 3 3 3 4 3 4 4 4 4 4 3 3 3 2 2 2 5 0 2 4 5 3 6 8 8 9 9 10 11 11 11 12 13 14 15 15 15 15 16 17 18 18 18 19
7 6 8 9 9 7 9 10 8 8 7 8 7 7 8 8 6 9 8 7 7 8 5 7 7 5 4 5 3 4 3 3 2 2 2 1 2 5 6 5 2 2 3 4 3 4 3 4 5 5 5 4 4 3 3 2 3 7 2 3 2 4 6 7 8 9 10 10 11 12 12 11 12 13 14 15 15 15 15 16 16 17 17 18 19
5 6 8 8 9 9 9 10 9 8 8 8 8 8 8 7 6 6 7 4 6 6 4 6 6 6 5 4 5 4 4 3 4 3 3 3 3 3 3 4 4 3 3 3 4 5 6 4 3 4 4 4 4 3 3 1 2 6 3 4 2 2 6 9 10 10 11 12 12 12 12 12 12 13 15 15 15 15 15 15 16 16 17 18 19
7 7 7 7 8 9 10 8 9 8 8 8 7 7 7 8 8 8 9 5 6 6 5 6 5 6 4 4 5 5 4 5 5 4 4 3 3 2 1 1 0 0 1 3 6 4 4 5 3 5 5 4 4 3 3 3 5 6 3 2 3 3 7 10 11 11 12 13 13 13 13 13 13 13 15 16 15 15 15 15 16 16 17 18 19
6 6 6 7 6 7 7 9 8 7 8 8 7 5 5 6 6 6 7 7 6 5 5 6 7 6 6 5 5 5 4 5 5 4 3 4 3 3 3 3 2 1 1 1 2 3 2 3 2 3 4 5 3 3 3 4 6 6 2 3 4 5 9 11 12 14 14 14 13 13 13 14 14 14 15 16 16 15 16 16 16 17 18 19 20
7 7 7 7 7 7 7 5 7 8 6 7 8 7 6 6 6 6 6 7 7 6 5 6 6 7 7 7 6 6 5 6 6 5 4 4 3 3 3 3 3 2 1 2 1 2 3 2 2 3 5 4 3 3 2 2 5 5 3 4 5 8 11 9 13 15 15 14 14 14 14 14 14 15 16 17 16 16 16 16 16 17 18 19 20
7 7 8 8 8 9 8 9 8 8 8 6 6 7 8 7 7 7 7 8 8 7 6 5 5 6 8 7 7 6 6 6 5 4 4 4 4 3 3 3 4 2 2 0 2 1 1 2 3 3 4 4 4 3 3 3 5 9 4 4 6 8 6 7 12 14 14 14 14 14 14 14 14 15 17 17 17 17 16 16 16 17 19 19 19
6 8 8 9 9 9 9 10 9 9 9 9 8 7 8 8 7 7 8 9 9 7 8 8 6 7 8 8 7 6 6 6 5 5 5 4 4 3 3 3 2 2 1 0 1 2 0 2 2 2 3 3 2 4 4 4 3 5 6 5 6 6 6 6 6 10 13 14 15 14 14 14 14 15 17 17 17 17 17 17 16 18 19 19 19
7 7 8 8 8 10 10 10 10 10 9 9 9 8 9 8 8 6 8 9 9 9 9 10 8 6 8 9 8 7 6 7 6 6 5 5 4 4 2 2 2 2 0 0 2 1 2 2 1 2 3 3 2 3 5 4 4 3 5 6 5 6 6 6 6 5 12 13 14 14 15 15 15 16 17 18 18 17 17 17 17 18 19 19 19
6 7 8 8 9 9 9 9 10 10 10 9 8 7 8 9 9 9 9 10 10 11 11 10 10 9 9 9 9 8 6 8 6 6 5 5 4 4 4 2 1 2 1 0 0 2 3 3 1 2 3 4 5 3 3 4 3 3 5 6 6 5 5 6 6 5 10 13 15 15 16 16 16 16 17 18 18 18 17 17 17 19 19 19 19
7 6 7 7 7 9 8 9 9 9 10 9 9 8 9 9 9 11 10 10 10 11 11 11 10 10 11 11 9 9 8 8 7 6 5 5 5 4 4 2 1 1 0 1 1 2 2 3 3 2 3 3 4 3 3 3 4 5 6 6 5 6 6 6 7 7 8 14 15 16 16 17 17 17 18 18 19 18 18 18 18 20 20 20 19
7 7 7 6 7 8 8 9 10 10 10 10 10 9 8 8 9 10 10 10 10 11 11 11 11 11 11 11 11 10 9 9 7 7 6 6 5 5 4 3 1 1 1 1 2 2 2 5 5 4 3 3 3 3 3 4 5 6 5 7 6 6 7 7 6 7 10 15 16 17 17 17 18 18 18 18 19 19 18 18 19 20 21 20 19
8 8 8 7 7 10 9 9 9 9 9 9 10 10 9 8 8 9 9 10 10 10 10 10 11 10 11 11 11 10 10 10 9 8 7 7 6 5 4 3 2 2 2 2 2 3 4 5 5 6 5 4 4 4 5 6 5 5 6 6 5 6 6 7 7 6 5 5 5 7 11 14 17 19 18 18 19 19 19 19 19 20 20 20 19
9 7 6 7 8 9 9 9 10 9 9 9 9 9 9 9 9 10 10 10 10 10 10 10 9 9 10 11 11 10 10 9 11 10 8 7 5 5 4 4 3 3 3 3 3 4 5 6 6 6 6 4 4 6 5 4 5 5 6 7 8 6 6 7 7 5 5 6 10 13 12 10 10 9 12 17 19 19 19 19 19 20 19 20 19
6 6 7 8 8 8 9 9 8 8 8 8 8 8 9 10 10 10 11 11 10 9 9 8 8 9 9 10 10 9 9 9 9 8 9 7 5 5 4 4 4 3 4 4 5 5 5 6 7 6 6 5 4 5 4 3 4 7 7 7 9 8 7 7 7 6 4 6 6 6 9 11 12 14 17 18 19 20 21 20 21 19 18 19 18
6 7 7 7 8 8 7 7 7 7 8 8 8 8 9 10 9 10 11 11 11 10 9 8 7 7 8 7 7 7 9 9 8 9 8 7 6 5 4 5 4 5 4 4 4 4 4 5 7 7 7 7 6 6 6 6 8 10 5 5 7 8 7 7 7 7 6 7 7 7 6 5 5 5 6 7 8 12 13 17 14 17 18 18 18
7 7 7 7 7 7 7 7 7 6 6 5 8 13 12 10 10 8 8 10 11 11 10 9 7 7 7 6 7 11 12 10 9 11 10 8 5 3 3 5 5 5 5 5 5 5 5 7 9 8 8 9 8 7 9 9 7 6 7 7 9 9 7 9 9 6 5 6 7 7 6 4 5 6 6 7 6 7 6 6 6 9 13 15 16
8 7 7 7 7 6 7 7 7 6 6 6 11 13 15 13 11 11 12 11 10 10 10 10 8 8 6 7 7 8 8 7 7 10 8 7 6 7 8 7 6 6 5 6 6 6 7 9 9 7 9 11 11 9 9 10 7 8 8 8 9 8 8 9 11 8 4 4 5 6 7 4 4 7 7 7 6 6 6 7 13 16 17 16 17
7 7 7 8 7 7 6 6 7 7 6 9 8 12 15 16 12 9 9 8 9 9 10 10 9 8 8 6 6 5 6 7 6 6 5 7 8 10 11 12 13 14 11 8 7 8 9 9 10 10 10 11 13 11 9 9 9 8 8 8 9 8 9 9 10 10 5 1 4 6 9 5 3 6 8 7 5 6 8 12 16 16 17 18 20
6 7 7 8 8 7 7 8 8 6 6 10 10 11 11 12 12 11 7 10 9 8 9 9 10 9 9 8 7 5 5 8 7 5 5 4 7 11 12 13 13 14 15 18 17 12 9 9 10 12 13 11 13 13 9 7 5 9 9 9 8 8 8 9 9 8 6 2 0 6 10 9 5 5 8 8 7 6 7 11 15 16 18 18 20
7 7 5 7 6 7 8 7 7 6 6 10 12 11 10 9 12 9 8 9 7 9 10 10 9 8 8 10 9 7 5 6 5 5 4 4 4 4 6 7 7 10 14 18 19 21 16 11 12 14 15 10 12 12 9 7 10 10 9 9 8 8 9 11 11 11 9 7 8 8 11 13 7 6 10 9 6 6 6 10 15 15 18 19 20
8 9 9 8 6 5 5 5 5 5 5 11 13 12 10 11 11 9 6 6 5 6 7 9 10 10 10 9 9 9 8 7 6 6 5 5 4 4 6 7 9 9 8 9 10 10 10 10 13 15 15 11 10 9 8 7 8 7 5 5 7 9 10 11 12 12 12 10 10 9 12 11 6 7 9 8 7 8 5 9 16 16 17 18 19
3 3 2 4 5 6 5 6 5 5 4 14 12 14 14 14 11 5 5 6 6 6 7 8 8 8 8 8 7 7 7 6 8 11 7 4 4 7 8 9 8 9 10 10 11 9 8 9 9 10 10 10 11 11 11 9 7 7 8 9 9 8 8 9 11 10 11 8 9 10 9 10 7 6 8 7 6 8 6 5 10 16 17 17 17
5 6 5 5 5 5 6 6 6 5 4 11 14 15 15 15 9 4 5 5 7 7 7 8 7 7 7 7 7 6 6 6 8 10 10 9 6 7 8 10 9 9 10 6 11 16 18 19 20 21 22 23 24 24 24 25 17 13 10 10 11 6 6 8 10 11 11 7 7 9 8 8 6 6 8 7 6 8 7 7 6 13 16 14 12
6 6 5 5 4 5 6 6 6 6 5 9 14 16 16 16 9 7 6 7 7 8 6 5 5 5 6 7 6 6 6 6 8 10 10 9 7 7 8 9 11 11 8 3 5 7 13 17 20 21 21 21 21 23 23 21 20 14 8 10 10 8 11 10 10 9 9 8 8 6 4 8 6 6 7 7 7 6 7 7 5 4 8 8 11
6 5 5 5 5 5 5 5 7 7 6 10 15 17 18 17 11 7 7 7 8 6 6 6 4 4 5 6 8 7 6 6 9 10 12 10 7 7 7 8 10 11 7 5 7 7 5 4 7 8 9 12 12 11 11 18 18 15 10 11 9 9 10 10 9 9 9 9 5 6 6 6 6 6 5 4 7 6 5 5 4 2 1 1 5
Wind_Direction
181 180 186 188 171 165 160 166 159 150 147 144 133 125 118 117 119 118 113 110 104 97 92 86 80 73 70 66 66 72 76 82 81 81 83 77 61 38 33 31 38 70 67 67 69 72 77 76 78 81 74 73 72 71 71 69 66 63 59 58 59 58 54 52 53 52 50 48 46 45 43 42 41 39 38 37 35 34 32 30 29 28 28 24 24
181 179 182 186 180 160 170 167 164 153 151 142 138 132 130 126 123 121 118 112 105 104 102 93 84 79 76 74 74 78 75 77 81 83 84 79 70 55 41 36 33 56 61 68 65 69 70 72 72 75 77 75 76 75 73 71 65 62 62 58 56 55 55 53 51 50 50 47 46 44 43 41 39 38 36 35 33 32 29 28 27 25 26 24 22
181 184 187 176 186 171 175 166 164 156 157 147 143 141 136 133 136 134 127 118 113 110 109 102 95 87 80 79 79 80 74 71 78 82 84 81 80 71 55 44 41 39 61 67 71 71 71 70 69 74 78 75 71 72 71 71 69 61 58 57 56 54 53 52 49 49 48 46 44 42 42 40 38 36 35 34 32 30 29 28 27 25 25 23 22
187 184 185 170 187 182 168 166 161 156 157 148 137 133 127 127 126 121 119 120 118 118 114 110 102 94 88 85 81 83 80 76 73 70 75 82 84 82 74 66 48 44 42 64 72 68 65 66 66 65 68 72 73 69 67 68 66 60 57 55 52 52 52 51 48 46 46 46 44 41 42 40 37 34 33 32 30 30 28 27 26 25 24 23 21
193 189 186 173 185 172 141 119 149 150 142 139 137 132 129 127 123 131 126 128 122 119 114 112 110 105 98 91 90 87 89 89 83 78 82 83 88 87 92 84 76 55 47 44 56 61 61 62 62 65 67 66 69 73 68 66 64 61 56 52 50 51 52 51 50 47 45 44 44 42 40 38 34 33 32 31 30 29 28 27 26 24 23 23 21
194 180 175 181 179 166 158 158 170 152 145 150 151 144 140 137 138 140 136 135 133 129 126 119 115 110 106 101 99 97 94 86 81 81 83 84 80 85 88 86 80 78 60 45 42 49 57 60 60 59 60 63 63 67 72 65 63 63 61 56 49 46 47 49 50 50 47 45 44 41 38 35 34 33 32 31 30 29 28 27 25 22 22 21 18
196 182 180 183 177 167 163 154 157 144 143 164 158 146 142 144 147 140 142 137 131 126 122 120 118 116 113 111 100 103 95 88 81 76 74 76 73 76 75 76 78 87 78 71 46 44 52 56 58 58 58 57 56 60 65 66 59 57 59 61 54 49 44 44 46 48 45 45 41 39 36 34 34 32 32 31 29 28 26 26 23 21 19 18 16
199 193 180 176 172 167 162 154 152 147 148 156 157 149 147 145 149 148 141 136 131 126 124 123 120 117 115 112 114 108 99 90 84 79 76 78 75 73 71 68 70 74 82 76 72 53 53 55 55 55 56 56 52 50 55 59 58 57 56 60 59 52 47 43 43 45 45 42 39 36 34 32 32 31 30 28 27 26 24 22 22 19 16 17 13
182 188 190 179 177 171 164 163 159 165 158 157 166 148 142 138 142 146 151 135 133 126 123 124 122 116 112 112 110 106 101 97 92 87 77 83 86 83 77 76 74 75 78 93 94 83 60 62 57 50 51 55 56 53 46 49 56 57 56 54 52 56 52 42 43 43 41 39 35 33 31 29 29 29 27 25 24 22 21 19 18 18 14 13 11
186 174 184 176 176 174 170 163 165 169 156 152 164 145 140 143 134 134 143 135 133 135 132 129 125 122 115 114 104 92 89 89 88 99 92 93 84 82 80 77 74 71 76 81 86 90 99 77 67 53 45 54 56 55 53 46 46 47 50 47 49 49 51 45 39 39 38 35 32 30 28 26 26 25 23 22 21 18 18 18 15 15 13 12 7
182 176 161 160 165 170 172 172 170 161 159 152 153 158 144 147 142 130 122 121 132 132 130 130 124 116 109 100 92 90 90 88 98 81 84 82 86 81 85 82 79 74 79 79 78 71 65 67 69 68 54 53 55 53 50 48 45 41 43 46 47 46 46 43 37 34 35 33 30 28 25 24 23 21 21 20 17 15 15 15 12 9 10 9 4
191 170 162 158 156 164 169 168 172 169 165 163 165 164 154 144 139 137 128 107 98 124 127 130 119 111 103 93 85 88 83 85 83 92 101 112 115 115 103 106 96 88 81 79 72 68 70 71 83 89 85 63 59 56 51 44 42 44 39 34 39 46 40 44 39 31 31 30 27 25 23 21 18 17 17 15 14 11 11 11 9 5 6 4 1
178 180 177 160 154 158 159 169 165 170 178 173 168 159 147 141 136 135 134 125 126 138 139 134 128 114 110 106 98 79 78 90 97 97 109 125 121 120 123 115 109 98 86 82 79 72 76 70 70 66 72 94 81 66 59 47 36 39 39 39 32 34 37 38 39 29 24 25 23 22 20 17 15 14 12 10 9 7 5 9 6 3 3 0 360
175 170 171 164 158 157 166 166 167 173 178 168 159 149 146 149 147 128 140 139 145 162 155 144 150 152 148 145 126 115 96 99 107 109 113 108 127 117 126 122 117 115 116 100 91 87 77 77 71 68 63 65 69 71 53 49 38 37 39 34 35 32 33 33 34 29 22 19 20 18 16 14 12 9 8 4 2 3 1 3 2 0 358 356 357
173 167 167 171 159 161 165 166 171 169 166 167 164 163 164 162 164 150 146 145 137 162 169 182 146 146 138 130 160 159 166 179 164 167 158 152 142 135 127 128 131 136 127 121 110 94 82 77 77 72 68 69 76 90 93 77 72 51 41 35 32 33 30 28 26 24 20 17 16 14 12 11 7 4 1 359 358 359 357 358 356 354 354 353 352
178 173 169 175 171 171 166 171 172 175 173 166 169 173 168 163 167 165 149 143 163 178 192 200 157 153 161 200 169 178 165 213 180 170 166 161 164 154 153 143 144 143 141 124 120 113 108 93 88 86 75 66 64 76 76 77 116 80 53 34 31 29 27 25 24 22 19 17 14 11 9 5 3 359 355 354 354 354 353 352 351 349 352 348 349
187 174 175 178 181 178 174 174 178 181 178 168 164 169 168 174 168 163 167 155 166 175 198 215 195 188 149 154 142 213 231 151 150 161 168 172 175 165 155 167 158 164 138 125 122 125 123 121 106 92 87 83 77 74 61 56 59 36 52 38 33 29 26 20 18 16 16 13 11 8 7 2 359 353 352 352 350 349 347 347 348 348 347 346 346
185 179 182 179 181 181 178 174 174 184 183 180 175 171 172 171 177 170 175 176 159 169 184 202 225 205 261 341 329 242 178 140 156 167 169 195 153 174 171 181 166 166 153 145 150 142 133 127 126 110 98 87 85 83 90 62 52 53 43 29 38 31 25 19 15 11 9 8 7 3 1 357 354 351 351 349 346 344 342 343 343 344 344 342 339
186 177 175 180 187 182 176 169 173 172 177 174 179 180 179 181 176 183 178 171 168 172 180 182 200 244 207 207 342 300 108 139 189 111 169 176 187 181 185 180 189 180 162 162 155 149 140 138 135 125 112 106 118 118 107 104 85 80 47 32 36 31 23 20 13 7 4 2 0 358 353 351 350 349 348 345 342 340 339 339 340 340 339 337 337
182 173 174 181 181 172 164 166 168 177 171 177 183 182 181 186 185 183 178 180 180 179 182 178 185 194 178 173 240 4 147 309 155 166 147 158 183 181 170 173 187 199 182 170 164 158 150 150 144 149 128 124 166 129 111 99 89 66 39 26 29 28 19 14 9 4 360 356 354 349 346 345 346 344 342 339 337 337 336 336 336 336 335 333 332
192 170 173 176 185 174 167 170 174 174 177 180 182 182 185 179 181 177 187 190 188 189 183 181 189 186 157 192 196 175 166 169 241 218 151 156 156 176 176 166 208 209 190 174 171 156 163 157 153 149 139 129 170 152 144 121 101 90 47 24 21 18 11 5 357 357 351 348 344 339 337 341 341 339 335 333 334 334 333 333 333 333 332 329 330
173 152 174 189 188 188 180 175 177 178 181 184 181 185 188 188 183 183 183 190 193 201 192 181 183 181 170 169 183 161 161 167 217 201 189 215 168 183 174 171 184 195 178 179 173 167 168 153 151 174 178 177 144 177 142 106 84 85 51 22 16 10 360 354 347 344 339 335 331 330 332 337 336 330 329 330 331 331 331 330 330 329 328 329 331
172 182 165 166 170 184 195 195 183 184 186 188 186 185 188 189 189 190 190 190 193 202 190 179 177 183 172 182 191 184 175 183 182 185 178 173 131 150 152 177 177 155 176 173 172 179 171 167 176 178 195 179 181 173 192 123 116 88 241 13 11 356 350 343 336 329 325 320 323 325 330 329 324 324 325 326 326 326 327 327 327 325 326 330 332
162 184 186 157 143 147 145 204 195 186 190 197 195 193 191 189 188 193 198 198 200 200 184 173 180 176 178 187 191 186 193 187 181 175 187 182 172 147 154 153 191 151 132 159 168 177 177 182 188 186 187 186 188 201 166 182 138 122 273 174 310 331 337 330 325 318 313 315 318 322 319 318 317 319 319 318 317 321 322 324 322 322 325 330 331
198 195 192 170 160 157 172 189 197 189 188 199 204 195 191 193 191 193 201 198 199 193 187 179 178 171 176 183 187 179 183 59 109 160 186 163 158 125 130 155 157 133 142 156 175 180 192 192 183 188 178 195 179 205 206 217 157 151 343 244 229 281 316 323 313 307 307 312 315 311 309 309 313 313 312 309 311 316 319 319 320 321 326 329 329
184 198 171 174 180 195 192 197 199 188 181 198 198 191 186 190 193 194 199 199 200 200 190 167 172 161 158 154 152 141 95 90 77 104 110 118 139 131 131 146 171 147 137 179 165 157 195 190 186 181 185 192 183 206 211 226 165 142 104 282 269 242 275 299 298 298 302 306 303 299 298 303 305 305 303 304 308 312 314 316 317 322 326 327 326
187 188 177 191 194 187 195 200 195 190 184 188 195 192 189 185 194 197 204 200 196 188 171 156 160 147 138 146 123 95 103 99 121 90 85 101 111 130 142 142 158 167 162 170 171 198 178 170 181 188 184 188 189 194 209 221 152 144 205 259 267 251 251 270 281 292 298 296 291 290 292 295 298 299 298 300 303 306 310 312 317 321 324 324 323
172 177 190 187 194 191 190 199 193 187 188 188 188 188 188 187 188 190 198 185 184 182 151 146 149 148 135 119 114 98 95 92 81 86 71 72 77 106 150 158 159 193 173 191 183 218 181 149 174 188 189 187 191 192 189 167 249 161 203 250 253 270 257 256 271 286 290 286 284 286 288 291 293 294 294 295 296 301 305 310 313 316 319 319 318
190 185 175 181 196 199 194 180 184 186 182 188 189 188 185 188 188 185 186 167 172 169 142 151 139 135 128 130 116 114 104 101 90 89 93 77 70 75 56 98 18 281 188 200 197 184 155 160 162 190 185 194 185 193 166 211 210 170 230 244 255 254 260 260 268 280 284 283 282 282 285 287 286 287 289 290 292 298 302 304 307 313 315 314 312
172 177 171 171 184 189 195 183 182 182 185 183 187 188 178 193 194 185 177 163 161 146 139 140 143 137 130 115 113 110 113 98 93 91 90 86 87 77 74 58 40 51 2 355 337 81 134 166 207 138 177 193 194 192 181 213 162 175 228 247 245 250 259 262 270 279 279 277 278 279 279 279 281 282 284 286 290 295 298 300 305 310 310 309 309
162 155 164 166 174 175 180 167 179 184 181 183 181 181 177 183 178 172 154 160 161 156 145 140 142 139 134 122 115 113 108 102 97 90 86 89 87 79 71 65 56 42 41 353 277 67 120 164 203 111 153 186 185 188 191 218 176 191 225 248 249 256 260 263 269 271 270 270 271 272 273 276 279 280 281 285 288 292 294 296 301 305 305 305 305
163 155 162 176 176 178 181 182 184 177 177 178 177 178 180 187 178 175 168 162 160 153 142 135 140 141 135 129 126 124 121 113 106 100 93 74 73 82 78 77 78 48 43 359 283 294 91 120 121 126 147 164 180 186 221 208 197 184 225 244 251 254 251 253 259 258 258 264 267 269 271 272 274 276 279 282 286 287 289 292 297 299 300 301 302
151 167 176 180 181 182 178 183 183 180 179 178 177 177 186 183 181 171 161 165 159 152 141 139 142 143 139 128 121 118 122 116 114 109 97 90 81 78 79 95 99 86 78 302 271 289 56 75 99 145 153 145 201 195 219 231 198 200 219 237 239 241 245 250 258 261 257 258 262 265 265 267 270 273 277 281 282 284 284 287 291 294 296 297 300
169 176 185 181 179 181 183 183 182 183 182 182 177 177 188 180 176 164 165 165 160 150 148 151 151 144 134 127 122 120 115 111 113 107 110 112 106 107 104 95 90 111 75 100 287 264 271 153 176 132 141 179 210 219 199 228 244 224 209 217 227 229 242 251 255 256 261 259 262 262 262 264 268 272 277 279 280 281 281 283 286 290 293 296 297
173 188 186 184 179 179 184 187 183 183 183 180 180 180 189 182 172 166 168 168 163 157 157 157 151 143 133 130 127 120 112 109 107 108 113 114 111 114 103 83 80 92 91 357 248 272 281 280 103 157 185 189 203 229 218 211 232 238 251 252 247 244 236 241 250 254 261 263 264 265 264 265 267 270 274 276 278 278 278 279 282 287 291 292 293
181 191 189 176 172 184 187 189 186 184 181 180 180 187 191 186 177 171 170 169 165 163 161 155 151 147 140 130 132 130 126 124 125 123 120 119 121 112 103 86 72 70 99 149 271 255 289 276 275 226 231 204 227 210 208 228 228 240 242 248 241 241 241 239 242 248 252 257 263 265 264 265 268 270 271 273 275 276 275 276 280 286 289 290 291
187 182 188 168 174 183 191 192 187 187 187 180 179 184 191 187 180 173 171 167 165 163 158 155 152 148 145 141 142 139 139 133 137 135 135 129 118 104 104 100 127 183 151 222 226 245 243 257 268 255 216 218 218 224 220 228 246 246 237 242 242 240 244 238 237 243 251 257 262 261 260 261 264 266 267 269 272 272 272 273 279 286 290 291 291
189 191 182 175 177 188 195 197 193 189 188 187 184 184 186 182 175 175 169 164 161 156 154 154 153 151 145 142 143 148 150 153 146 133 134 132 116 113 121 146 167 188 209 221 220 225 241 250 258 266 253 224 234 231 202 218 239 255 263 255 249 242 243 250 240 238 232 235 237 247 253 256 259 261 260 260 264 267 267 270 276 284 288 289 288
189 175 165 171 185 191 197 198 197 188 188 194 190 184 181 179 176 171 163 158 156 153 154 151 147 141 143 146 151 154 157 144 134 144 142 131 128 136 157 169 181 189 218 227 226 230 237 249 254 256 259 248 234 250 241 207 216 238 256 278 274 250 235 246 259 239 223 232 239 238 236 234 238 243 249 253 256 260 263 267 272 276 286 288 287
174 172 173 179 187 194 198 197 196 187 189 195 196 187 178 175 175 173 164 156 149 141 141 144 145 145 143 143 147 153 142 138 146 148 137 135 137 151 168 166 182 194 218 233 235 236 241 248 253 259 258 255 236 251 234 205 241 250 236 234 258 270 260 252 247 249 240 237 242 239 240 247 251 251 252 255 257 261 265 268 269 268 271 280 282
181 185 183 186 186 196 202 197 191 188 194 197 196 187 178 176 176 168 160 152 149 144 142 138 131 122 118 118 116 122 123 118 125 123 121 129 144 165 185 173 193 202 221 230 237 239 250 254 260 261 262 253 248 249 249 231 229 253 246 211 245 257 262 266 262 248 244 251 253 251 246 232 229 229 228 240 245 252 259 263 262 259 260 270 278
178 175 174 177 187 190 190 193 194 190 198 199 201 192 182 172 168 162 151 154 154 149 142 132 116 112 110 111 122 128 129 129 125 116 121 127 149 170 178 183 199 213 221 228 238 241 247 254 256 261 263 263 255 247 256 253 252 256 261 255 261 265 270 267 269 251 218 233 255 250 246 218 224 241 232 244 245 247 248 253 242 244 247 256 279
166 162 168 177 186 186 188 189 192 196 200 202 200 192 188 176 166 165 162 155 148 144 144 139 133 130 116 115 122 122 121 131 131 128 137 155 191 218 235 241 235 217 225 237 241 236 246 257 263 260 263 268 263 259 258 268 260 259 262 266 269 271 267 278 283 283 247 238 231 257 257 234 212 247 249 250 253 250 255 255 259 254 257 265 277
170 153 168 183 183 188 191 194 202 202 207 205 183 184 184 182 173 157 152 149 152 152 149 145 141 135 133 129 123 128 148 155 138 133 152 189 211 223 231 237 239 244 243 235 243 251 248 254 262 262 262 261 272 267 268 270 274 278 274 269 264 264 270 272 276 280 315 131 222 257 267 247 215 242 257 253 254 256 257 262 264 262 267 272 284
163 173 170 179 183 185 190 194 201 198 208 187 171 174 171 165 161 162 159 153 149 151 150 148 143 137 137 133 129 138 148 134 122 131 142 186 220 230 240 244 246 243 244 245 242 241 249 258 265 267 257 262 269 271 267 274 291 287 288 279 275 272 273 277 278 289 301 16 335 271 275 272 250 250 263 262 265 258 262 269 275 272 274 272 285
169 173 168 180 176 182 188 192 192 193 201 182 170 162 158 157 162 156 152 151 150 148 147 145 140 137 142 145 145 153 156 142 138 143 166 183 206 223 232 234 235 239 241 242 243 244 244 247 254 260 263 255 262 276 294 309 299 290 289 283 287 286 285 280 289 290 293 301 284 284 276 274 262 259 266 270 260 256 257 270 274 276 279 278 284
174 179 181 182 182 176 173 177 188 189 190 164 163 158 145 152 154 151 147 143 131 126 127 139 147 149 149 151 157 156 158 163 160 163 160 185 199 229 249 253 252 253 250 243 239 241 241 242 245 253 267 272 272 284 292 288 279 283 289 286 278 275 276 278 276 271 273 259 259 258 264 275 272 262 261 269 272 271 267 275 278 277 278 277 282
139 118 129 159 168 169 170 174 182 187 166 164 160 157 166 158 146 131 138 134 127 123 123 125 132 139 149 154 153 151 155 160 171 181 183 175 220 240 251 257 258 257 256 248 252 252 245 241 245 253 264 270 274 277 276 276 272 268 269 268 271 274 279 274 269 275 267 263 247 252 261 268 265 262 264 268 270 270 266 258 272 277 278 276 275
146 165 170 168 168 167 164 170 176 177 151 166 160 161 157 149 138 126 129 128 129 134 137 141 137 141 148 159 152 146 155 159 173 191 207 206 226 238 250 259 261 262 266 262 250 254 257 261 266 270 273 276 279 281 283 285 287 292 298 291 279 278 258 261 267 275 271 272 251 250 262 266 251 250 267 268 262 267 272 271 267 269 269 270 270
164 162 154 149 152 165 167 173 177 172 158 162 161 157 149 150 150 148 147 140 139 132 130 126 125 143 157 155 145 149 157 166 170 200 214 216 232 237 247 260 267 268 276 262 252 247 249 252 258 263 267 271 275 276 278 277 276 275 262 264 269 271 268 266 274 274 281 275 264 249 257 250 259 255 269 275 276 252 259 260 246 256 272 272 267
143 137 148 147 149 157 168 168 167 165 156 165 165 161 157 159 150 147 144 142 142 141 135 139 141 143 157 168 168 167 163 169 192 207 218 217 231 234 244 257 268 275 285 292 288 286 282 272 263 259 261 260 259 258 257 260 259 256 248 252 262 260 265 270 274 285 285 281 282 163 228 260 259 253 248 278 271 266 235 247 275 266 237 240 272